Tracking 31032 objects as of 14-Jul-2025
HD Live streaming from Space Station
objects crossing your sky now

GALAXY 36

Track GALAXY 36 now!
GALAXY 36 is classified as:


NORAD ID: 54742
Int'l Code: 2022-170B
Perigee: 35,782.3 km
Apogee: 35,805.8 km
Inclination: 0.0 °
Period: 1,436.1 minutes
Semi major axis: 42165 km
RCS: Unknown
Launch date: December 13, 2022
Source: United States (US)
Launch site: FRENCH GUIANA (FRGUI)
Your satellite tracking list
Your tracking list is empty




NASA's NSSDC Master Catalog

Two Line Element Set (TLE):
1 54742U 22170B   25195.23516846 -.00000177  00000-0  00000+0 0  9996
2 54742   0.0134 291.7402 0002782 174.3927 181.8724  1.00270622  9526
Source of the keplerian elements: AFSPC